Siren, WI

7:17 PM CST on February 27, 2017 (GMT -0600)
Burnett County

Weather History for KRZN - March, 2014

Change the Weather History Date:

Sunday, March 2, 2014

  Actual Average Record
Temperature  
Mean Temperature -7 °F -  
Max Temperature 4 °F - - ()
Min Temperature -18 °F - - ()
Degree Days  
Heating Degree Days 72    
Moisture  
Dew Point -22 °F    
Average Humidity 51    
Maximum Humidity 73    
Minimum Humidity 40    
Precipitation  
Precipitation 0.00 in - - ()
Sea Level Pressure  
Sea Level Pressure 30.47 in    
Wind  
Wind Speed 7 mph (WNW)    
Max Wind Speed 13 mph    
Max Gust Speed 17 mph    
Visibility 10 miles    
Events      
Averages and records for this station are not official NWS values.
T = Trace of Precipitation, MM = Missing Value Source: NWS Daily Summary

Daily Weather History Graph

Daily Weather History Graph

Search for Another Location

Airport or City:

Trip Planner

Search our weather history database for the weather conditions in past years. The results will help you decide how hot, cold, wet, or windy it might be!

Date:

Astronomy

Mar. 02, 2014 Rise Set
Actual Time 6:46 AM CST 5:57 PM CST
Civil Twilight 6:16 AM CST 6:27 PM CST
Nautical Twilight 5:42 AM CST 7:01 PM CST
Astronomical Twilight 5:07 AM CST 7:36 PM CST
Moon 7:11 AM CST (3/2) 8:02 PM CST (3/2)
Length of Visible Light 12h 11m
Length of Day
11h 11m
Waxing Crescent, 3% of the Moon is Illuminated
Mar 2
Waxing Crescent
Mar 8
First Quarter
Mar 16
Full
Mar 23
Last Quarter
Mar 30
New

Hourly Weather History & Observations

Time (CST) Temp. Windchill Dew Point Humidity Pressure Visibility Wind Dir Wind Speed Gust Speed Precip Events Conditions
12:10 AM -12.8 °F -29.8 °F -27.6 °F 48% 30.49 in 10.0 mi NW 8.1 mph - N/A   Clear
12:30 AM -12.3 °F -31.5 °F -27.4 °F 47% 30.49 in 10.0 mi NNW 10.4 mph - N/A   Clear
12:50 AM -11.7 °F -28.5 °F -27.6 °F 45% 30.50 in 10.0 mi NNW 8.1 mph - N/A   Clear
1:10 AM -11.6 °F -29.5 °F -27.9 °F 44% 30.51 in 10.0 mi NNW 9.2 mph - N/A   Clear
1:30 AM -11.7 °F -28.5 °F -27.8 °F 45% 30.51 in 10.0 mi NNW 8.1 mph - N/A   Clear
1:50 AM -12.1 °F -33.2 °F -27.4 °F 47% 30.50 in 10.0 mi NW 12.7 mph - N/A   Clear
2:10 AM -12.6 °F -30.8 °F -28.7 °F 45% 30.51 in 10.0 mi NNW 9.2 mph - N/A   Clear
2:30 AM -12.8 °F -26.8 °F -28.7 °F 45% 30.51 in 10.0 mi NNW 5.8 mph - N/A   Clear
2:50 AM -13.0 °F -28.6 °F -28.5 °F 46% 30.51 in 10.0 mi North 6.9 mph - N/A   Clear
3:10 AM -13.4 °F -31.7 °F -28.5 °F 47% 30.51 in 10.0 mi NNW 9.2 mph - N/A   Clear
3:30 AM -13.5 °F -29.3 °F -28.5 °F 47% 30.50 in 10.0 mi NNW 6.9 mph - N/A   Clear
3:50 AM -13.9 °F -29.7 °F -27.9 °F 50% 30.50 in 10.0 mi NNW 6.9 mph - N/A   Clear
4:10 AM -13.9 °F -28.1 °F -27.8 °F 50% 30.50 in 10.0 mi NNW 5.8 mph - N/A   Clear
4:30 AM -13.9 °F -26.1 °F -27.4 °F 51% 30.50 in 10.0 mi NNW 4.6 mph - N/A   Clear
4:50 AM -13.9 °F -28.1 °F -26.9 °F 52% 30.50 in 10.0 mi NW 5.8 mph - N/A   Clear
5:10 AM -14.3 °F -28.5 °F -27.0 °F 53% 30.51 in 10.0 mi WNW 5.8 mph - N/A   Clear
5:30 AM -14.8 °F -24.8 °F -27.6 °F 53% 30.51 in 10.0 mi West 3.5 mph - N/A   Mostly Cloudy
5:50 AM -15.7 °F -25.8 °F -28.3 °F 53% 30.51 in 10.0 mi West 3.5 mph - N/A   Scattered Clouds
6:10 AM -16.6 °F - -28.5 °F 55% 30.50 in 10.0 mi Calm Calm - N/A   Clear
6:30 AM -17.7 °F - -29.0 °F 56% 30.50 in 10.0 mi Calm Calm - N/A   Clear
6:50 AM -17.5 °F - -28.5 °F 57% 30.50 in 10.0 mi Calm Calm - N/A   Clear
7:10 AM -18.9 °F -32.0 °F -29.2 °F 59% 30.50 in 10.0 mi West 4.6 mph - N/A   Clear
7:30 AM -17.1 °F -29.9 °F -28.3 °F 57% 30.51 in 10.0 mi West 4.6 mph - N/A   Clear
7:50 AM -15.0 °F -31.0 °F -27.4 °F 54% 30.51 in 10.0 mi West 6.9 mph - N/A   Clear
8:10 AM -13.9 °F -31.1 °F -26.9 °F 52% 30.51 in 10.0 mi West 8.1 mph - N/A   Clear
8:30 AM -13.0 °F -27.0 °F -26.7 °F 51% 30.51 in 10.0 mi WNW 5.8 mph - N/A   Clear
8:50 AM -12.1 °F -32.3 °F -26.0 °F 50% 30.50 in 10.0 mi West 11.5 mph - N/A   Clear
9:10 AM -11.7 °F -30.8 °F -25.6 °F 50% 30.50 in 10.0 mi WNW 10.4 mph - N/A   Clear
9:30 AM -11.2 °F -27.8 °F -25.2 °F 50% 30.49 in 10.0 mi WNW 8.1 mph - N/A   Clear
9:50 AM -9.6 °F -25.8 °F -24.7 °F 48% 30.49 in 10.0 mi WNW 8.1 mph - N/A   Clear
10:10 AM -8.9 °F -26.2 °F -24.3 °F 47% 30.49 in 10.0 mi NW 9.2 mph - N/A   Clear
10:30 AM -7.8 °F -24.8 °F -23.8 °F 46% 30.48 in 10.0 mi WNW 9.2 mph - N/A   Clear
10:50 AM -6.5 °F -23.3 °F -23.6 °F 43% 30.48 in 10.0 mi WNW 9.2 mph - N/A   Clear
11:10 AM -5.1 °F -19.1 °F -22.9 °F 42% 30.47 in 10.0 mi West 6.9 mph - N/A   Clear
11:30 AM -4.0 °F -17.8 °F -21.6 °F 43% 30.48 in 10.0 mi West 6.9 mph - N/A   Clear
11:50 AM -3.5 °F -20.5 °F -21.8 °F 41% 30.47 in 10.0 mi West 10.4 mph - N/A   Clear
12:10 PM -2.4 °F -19.2 °F -20.6 °F 42% 30.47 in 10.0 mi WSW 10.4 mph - N/A   Clear
12:30 PM -1.7 °F -13.5 °F -20.4 °F 41% 30.47 in 10.0 mi WNW 5.8 mph - N/A   Clear
12:50 PM -0.6 °F -16.9 °F -19.5 °F 41% 30.46 in 10.0 mi West 10.4 mph - N/A   Clear
1:10 PM 0.3 °F -14.8 °F -18.8 °F 40% 30.46 in 10.0 mi West 9.2 mph - N/A   Clear
1:30 PM 1.0 °F -15.8 °F -17.9 °F 41% 30.46 in 10.0 mi WNW 11.5 mph - N/A   Clear
1:50 PM 1.4 °F -14.5 °F -17.1 °F 42% 30.45 in 10.0 mi West 10.4 mph - N/A   Clear
2:10 PM 1.4 °F -12.5 °F -17.7 °F 41% 30.45 in 10.0 mi West 8.1 mph 12.7 mph N/A   Clear
2:30 PM 2.5 °F -13.1 °F -16.1 °F 42% 30.44 in 10.0 mi West 10.4 mph 17.3 mph N/A   Clear
2:50 PM 2.7 °F -13.8 °F -15.9 °F 42% 30.43 in 10.0 mi West 11.5 mph - N/A   Clear
3:10 PM 3.0 °F -11.5 °F -16.4 °F 40% 30.43 in 10.0 mi West 9.2 mph - N/A   Clear
3:30 PM 3.2 °F -12.2 °F -16.1 °F 41% 30.43 in 10.0 mi West 10.4 mph - N/A   Clear
3:50 PM 3.7 °F -8.4 °F -15.3 °F 41% 30.42 in 10.0 mi West 6.9 mph - N/A   Clear
4:10 PM 4.1 °F -10.2 °F -15.3 °F 40% 30.42 in 10.0 mi West 9.2 mph - N/A   Clear
4:30 PM 3.9 °F -9.4 °F -14.8 °F 42% 30.43 in 10.0 mi West 8.1 mph - N/A   Clear
4:50 PM 4.1 °F -11.1 °F -14.6 °F 42% 30.43 in 10.0 mi West 10.4 mph - N/A   Clear
5:10 PM 3.4 °F -8.9 °F -14.4 °F 43% 30.44 in 10.0 mi WSW 6.9 mph - N/A   Clear
5:30 PM 1.6 °F -12.2 °F -14.6 °F 47% 30.44 in 10.0 mi WSW 8.1 mph - N/A   Clear
5:50 PM 0.5 °F -12.3 °F -14.8 °F 49% 30.44 in 10.0 mi WSW 6.9 mph - N/A   Clear
6:10 PM -0.4 °F -12.0 °F -14.8 °F 51% 30.44 in 10.0 mi West 5.8 mph - N/A   Clear
6:30 PM -0.9 °F -12.7 °F -14.8 °F 52% 30.44 in 10.0 mi WSW 5.8 mph - N/A   Clear
6:50 PM -2.4 °F -14.4 °F -15.3 °F 54% 30.44 in 10.0 mi WSW 5.8 mph - N/A   Clear
7:10 PM -2.2 °F -10.4 °F -15.3 °F 54% 30.44 in 10.0 mi West 3.5 mph - N/A   Clear
7:30 PM -4.2 °F -12.6 °F -15.7 °F 58% 30.44 in 10.0 mi West 3.5 mph - N/A   Clear
7:50 PM -6.7 °F -15.5 °F -17.1 °F 61% 30.44 in 10.0 mi West 3.5 mph - N/A   Clear
8:10 PM -8.1 °F - -16.6 °F 67% 30.44 in 10.0 mi Calm Calm - N/A   Clear
8:30 PM -7.8 °F - -16.2 °F 67% 30.44 in 10.0 mi Calm Calm - N/A   Clear
8:50 PM -10.3 °F -21.9 °F -17.7 °F 70% 30.45 in 10.0 mi WSW 4.6 mph - N/A   Clear
9:10 PM -10.3 °F -19.6 °F -18.0 °F 69% 30.45 in 10.0 mi West 3.5 mph - N/A   Clear
9:30 PM -10.5 °F - -18.6 °F 67% 30.46 in 10.0 mi Calm Calm - N/A   Clear
9:50 PM -10.7 °F - -18.4 °F 69% 30.47 in 10.0 mi Calm Calm - N/A   Clear
10:10 PM -11.4 °F - -18.8 °F 70% 30.47 in 10.0 mi Calm Calm - N/A   Clear
10:30 PM -12.1 °F - -19.3 °F 70% 30.47 in 10.0 mi Calm Calm - N/A   Clear
10:50 PM -12.5 °F - -18.9 °F 73% 30.48 in 10.0 mi Calm Calm - N/A   Clear
11:10 PM -12.5 °F -22.1 °F -19.5 °F 71% 30.48 in 10.0 mi West 3.5 mph - N/A   Clear
11:30 PM -11.2 °F - -18.4 °F 70% 30.48 in 10.0 mi Calm Calm - N/A   Clear
11:50 PM -11.4 °F -20.8 °F -19.7 °F 67% 30.48 in 10.0 mi WNW 3.5 mph - N/A   Clear